[[{"header":{"parameterUnit":"m.s-1","parameterCategory":1,"la1":30.2991,"la2":30.254,"lo1":-89.0895,"lo2":-89.0444,"dy":0.0017,"dx":0.0017,"nx":28,"ny":28,"refTime":"2025-11-06T09:00:00:Z","depth":0,"parameterNumber":2,"parameterNumberName":"U-component_of_WINDS"},"data":[0,0,0,0,0,0,0,0,0,0,0,0,0,0,0,0,0,0,0,0,0,0,0,0,0,0,0,0,0,0,0,0,0,0,0,0,0,0,0,0,0,0,0,0,0,0,0,0,0,0,0,0,0,0,0,0,0,0,-1.8283,-1.8282,0,-1.821,-1.8209,-1.8208,-1.8138,-1.8138,-1.8137,-1.8136,-1.8061,-1.806,-1.8059,0,0,0,0,0,0,0,0,0,0,0,0,0,-1.8366,-1.8364,-1.8283,-1.8282,-1.8281,-1.821,-1.8209,-1.8208,-1.8139,-1.8138,-1.8136,-1.8135,-1.8062,-1.806,-1.8059,0,0,0,0,0,0,0,0,0,0,0,0,0,-1.8315,-1.8364,-1.8283,-1.8238,-1.8233,-1.821,-1.8209,-1.8207,-1.8139,-1.8138,-1.8136,-1.8135,-1.8062,-1.806,-1.8059,-1.8074,0,0,-1.8053,-1.8052,0,0,0,0,0,0,0,0,-1.8318,-1.8312,-1.8246,-1.8241,-1.8236,-1.8182,-1.821,-1.8163,-1.8139,-1.8175,-1.8136,-1.8134,-1.8102,-1.8097,-1.8086,-1.807,-1.8067,-1.8053,-1.8052,-1.8051,-1.8051,0,0,0,0,0,0,0,-1.8321,-1.8315,-1.8254,-1.8245,-1.8239,-1.8222,-1.8214,-1.8201,-1.8147,-1.8172,-1.8166,-1.8159,-1.8099,-1.8088,-1.8084,-1.8066,-1.8053,-1.8051,-1.805,-1.805,-1.8061,-1.8063,0,0,0,0,0,0,-1.8332,-1.8318,-1.8256,-1.8252,-1.8274,-1.8222,-1.8212,-1.8201,-1.8147,-1.8137,-1.816,-1.8156,-1.8092,-1.8086,-1.8081,-1.8097,-1.8051,-1.805,-1.8048,-1.806,-1.8062,-1.8063,0,0,0,0,0,0,-1.8334,-1.8327,-1.8259,-1.8283,-1.8274,-1.8222,-1.8209,-1.82,-1.8188,-1.8138,-1.8128,-1.8158,-1.8091,-1.8084,-1.8077,-1.8094,-1.8049,-1.8047,-1.8058,-1.8061,-1.8062,-1.8129,0,0,0,0,0,0,-1.8336,-1.8328,-1.8333,-1.8284,-1.8273,-1.8256,-1.821,-1.8199,-1.8185,-1.8179,-1.8134,-1.8125,-1.8089,-1.808,-1.8075,-1.809,-1.8046,-1.8057,-1.8059,-1.8062,-1.8125,-1.8133,-1.8139,0,0,0,0,0,-1.8339,-1.8354,-1.8333,-1.8326,-1.8277,-1.8257,-1.825,-1.8209,-1.8187,-1.8192,-1.816,-1.8126,-1.8092,-1.808,-1.8074,-1.8089,-1.8055,-1.8059,-1.8062,-1.8121,-1.8131,-1.8139,0,0,0,0,0,0,-1.8405,-1.8346,-1.8323,-1.8322,-1.8295,-1.8245,-1.825,-1.822,-1.8198,-1.8194,-1.8143,-1.8133,-1.8133,-1.811,-1.8096,-1.8102,-1.8069,-1.8072,-1.8117,-1.8126,-1.8133,-1.8139,-1.8044,0,0,0,0,0,-1.842,-1.8407,-1.8357,-1.8361,-1.8348,-1.8302,-1.8291,-1.8262,-1.8232,-1.822,-1.8187,-1.816,-1.8143,-1.8133,-1.8114,-1.8121,-1.8111,-1.8129,-1.8136,-1.8142,-1.8145,-1.8149,-1.8157,-1.8073,-1.8073,-1.8073,0,0,-1.8449,-1.8416,-1.8411,-1.8373,-1.8349,-1.8338,-1.8292,-1.8282,-1.8275,-1.8218,-1.821,-1.8185,-1.8152,-1.8152,-1.8151,-1.8133,-1.8166,-1.8146,-1.8152,-1.8151,-1.8153,-1.8161,-1.8168,-1.8075,-1.8075,-1.8075,0,0,-1.8498,-1.847,-1.8472,-1.8449,-1.8413,-1.8382,-1.8382,-1.8337,-1.8319,-1.831,-1.8268,-1.8258,-1.823,-1.8208,-1.8193,-1.8236,-1.8206,-1.8232,-1.8271,-1.8275,-1.8282,-1.8288,-1.8305,-1.8311,-1.8234,-1.8235,-1.8235,0,-1.8539,-1.8521,-1.8476,-1.847,-1.8455,-1.8404,-1.8406,-1.8386,-1.8346,-1.8337,-1.8318,-1.8283,-1.8256,-1.8252,-1.8263,-1.8252,-1.8253,-1.8237,-1.8285,-1.829,-1.8294,-1.831,-1.8317,-1.8238,-1.8238,-1.8237,-1.8237,0,-1.8574,-1.8563,-1.8568,-1.8532,-1.8518,-1.8515,-1.8471,-1.8463,-1.8435,-1.8406,-1.8399,-1.8366,-1.8341,-1.8338,-1.831,-1.833,-1.8321,-1.8294,-1.826,-1.8307,-1.8321,-1.8326,-1.8243,-1.8242,-1.8241,-1.824,0,0,-1.8662,-1.8602,-1.8605,-1.8588,-1.8546,-1.8536,-1.8532,-1.8508,-1.8503,-1.8477,-1.8474,-1.8452,-1.8428,-1.8411,-1.8381,-1.8384,-1.8423,-1.8357,-1.8356,-1.8372,-1.8446,-1.8468,-1.8476,-1.8402,-1.8403,-1.8404,-1.845,0,-1.8704,-1.8694,-1.8655,-1.8657,-1.8646,-1.8599,-1.8596,-1.857,-1.8544,-1.8532,-1.8503,-1.8489,-1.8457,-1.8447,-1.8449,-1.8418,-1.8438,-1.8414,-1.84,-1.84,-1.8411,-1.8482,-1.8505,-1.8549,-1.8455,-1.8456,-1.8456,0,-1.8752,-1.8731,-1.8732,-1.8692,-1.8686,-1.8684,-1.866,-1.8649,-1.8619,-1.86,-1.8583,-1.8549,-1.8544,-1.8513,-1.8506,-1.8491,-1.8483,-1.8467,-1.8468,-1.8466,-1.8432,-1.8484,-1.8562,-1.857,-1.8464,-1.8463,-1.8463,0,-1.8818,-1.8789,-1.8787,-1.8774,-1.8727,-1.8727,-1.8707,-1.8676,-1.8665,-1.8644,-1.8637,-1.8616,-1.8604,-1.8589,-1.8552,-1.8532,-1.855,-1.8515,-1.8535,-1.8537,-1.8542,-1.8542,-1.8622,-1.8535,-1.8534,-1.8534,-1.8534,0,-1.887,-1.8873,-1.8816,-1.8815,-1.8818,-1.8773,-1.8777,-1.8753,-1.8726,-1.872,-1.8677,-1.8673,-1.8623,-1.8613,-1.8583,-1.8584,-1.8578,-1.8564,-1.8556,-1.8568,-1.8571,-1.8563,-1.856,-1.8536,-1.8536,-1.8535,-1.8535,0,-1.8944,-1.8906,-1.89,-1.8856,-1.8846,-1.885,-1.8812,-1.881,-1.8782,-1.8775,-1.8771,-1.8727,-1.8714,-1.8674,-1.8651,-1.8631,-1.864,-1.8625,-1.8651,-1.8646,-1.8669,-1.8669,-1.8748,-1.8757,-1.8663,-1.8664,-1.8665,0,-1.8981,-1.8982,-1.8939,-1.8932,-1.8914,-1.8903,-1.8892,-1.8849,-1.8839,-1.8807,-1.8809,-1.8792,-1.8776,-1.8757,-1.8724,-1.8706,-1.8691,-1.872,-1.8688,-1.8701,-1.8694,-1.8695,-1.8696,-1.8727,-1.8729,-1.873,-1.873,0,-1.905,-1.9032,-1.9017,-1.8997,-1.8985,-1.8966,-1.8945,-1.8942,-1.8894,-1.8885,-1.8871,-1.8859,-1.8836,-1.8821,-1.8798,-1.8778,-1.8748,-1.8741,-1.8745,-1.8758,-1.8774,-1.8768,-1.8671,-1.8739,-1.8738,-1.8738,-1.8737,-1.8737,-1.9107,-1.9108,-1.9078,-1.9064,-1.9044,-1.9026,-1.9022,-1.8994,-1.8982,-1.8959,-1.8935,-1.8924,-1.8897,-1.8863,-1.8846,-1.8838,-1.8821,-1.8827,-1.8828,-1.8831,-1.8837,-1.8774,-1.8833,-1.8833,-1.8833,-1.8833,-1.8832,0,-1.9176,-1.9155,-1.9143,-1.9116,-1.9105,-1.9076,-1.9053,-1.9046,-1.9037,-1.9014,-1.9,-1.8985,-1.8971,-1.8937,-1.8919,-1.892,-1.8905,-1.8917,-1.8917,-1.8914,-1.8852,-1.8852,-1.8929,-1.8929,-1.8929,-1.8929,-1.8929,-1.8929,-1.9211,-1.921,-1.9189,-1.9179,-1.9157,-1.9147,-1.9136,-1.912,-1.9102,-1.9087,-1.9075,-1.9053,-1.9026,-1.9007,-1.8993,-1.8983,-1.898,-1.8996,-1.8983,-1.8927,-1.8917,-1.8909,-1.8908,-1.8996,-1.8996,-1.9044,-1.9045,-1.9045]},{"header":{"parameterUnit":"m.s-1","parameterCategory":1,"la1":30.2991,"la2":30.254,"lo1":-89.0895,"lo2":-89.0444,"dy":0.0017,"dx":0.0017,"nx":28,"ny":28,"refTime":"2025-11-06T09:00:00:Z","depth":0,"parameterNumber":3,"parameterNumberName":"V-component_of_WINDS"},"data":[0,0,0,0,0,0,0,0,0,0,0,0,0,0,0,0,0,0,0,0,0,0,0,0,0,0,0,0,0,0,0,0,0,0,0,0,0,0,0,0,0,0,0,0,0,0,0,0,0,0,0,0,0,0,0,0,0,0,-0.4614,-0.4614,0,-0.4597,-0.4597,-0.4597,-0.4541,-0.4539,-0.4538,-0.4537,-0.4521,-0.4522,-0.4523,0,0,0,0,0,0,0,0,0,0,0,0,0,-0.4599,-0.46,-0.4614,-0.4614,-0.4614,-0.4597,-0.4597,-0.4597,-0.4541,-0.4539,-0.4538,-0.4536,-0.4521,-0.4522,-0.4523,0,0,0,0,0,0,0,0,0,0,0,0,0,-0.4596,-0.46,-0.4614,-0.4584,-0.4581,-0.4597,-0.4597,-0.4597,-0.4541,-0.4539,-0.4538,-0.4536,-0.4521,-0.4522,-0.4523,-0.4568,0,0,-0.4526,-0.4527,0,0,0,0,0,0,0,0,-0.4597,-0.4597,-0.4589,-0.4586,-0.4583,-0.4569,-0.4586,-0.4587,-0.4542,-0.4556,-0.4537,-0.4535,-0.4539,-0.4538,-0.4539,-0.4567,-0.4566,-0.4526,-0.4527,-0.4527,-0.4528,0,0,0,0,0,0,0,-0.4597,-0.4597,-0.4608,-0.4588,-0.4585,-0.4571,-0.4569,-0.4586,-0.4558,-0.4555,-0.4551,-0.455,-0.4537,-0.4538,-0.4538,-0.4566,-0.4526,-0.4527,-0.4528,-0.4528,-0.4631,-0.4633,0,0,0,0,0,0,-0.4601,-0.4598,-0.4608,-0.4607,-0.4585,-0.4573,-0.457,-0.4575,-0.4558,-0.4554,-0.4551,-0.4547,-0.4537,-0.4537,-0.4538,-0.4591,-0.4527,-0.4528,-0.4529,-0.4629,-0.4632,-0.4634,0,0,0,0,0,0,-0.4601,-0.4603,-0.4609,-0.4601,-0.4601,-0.4576,-0.4582,-0.4576,-0.4578,-0.4555,-0.455,-0.4558,-0.4536,-0.4536,-0.4561,-0.4589,-0.4529,-0.453,-0.4627,-0.463,-0.4633,-0.4696,0,0,0,0,0,0,-0.4601,-0.4603,-0.462,-0.4602,-0.4602,-0.4632,-0.4583,-0.4577,-0.458,-0.4574,-0.456,-0.4556,-0.4534,-0.456,-0.4562,-0.459,-0.4531,-0.4624,-0.4628,-0.4632,-0.4692,-0.4701,-0.4709,0,0,0,0,0,-0.4601,-0.4638,-0.4621,-0.4622,-0.4622,-0.4634,-0.4634,-0.4608,-0.4582,-0.4599,-0.4585,-0.4556,-0.4585,-0.4563,-0.4565,-0.4593,-0.4622,-0.4627,-0.4631,-0.4688,-0.4699,-0.4709,0,0,0,0,0,0,-0.466,-0.4635,-0.4616,-0.4648,-0.4644,-0.4624,-0.4645,-0.4621,-0.4623,-0.4618,-0.4586,-0.4583,-0.4613,-0.4605,-0.458,-0.4637,-0.4599,-0.4605,-0.4641,-0.4652,-0.4661,-0.4663,-0.4532,0,0,0,0,0,-0.4676,-0.4688,-0.4666,-0.4697,-0.4695,-0.4671,-0.4675,-0.4655,-0.4649,-0.4647,-0.4634,-0.463,-0.4638,-0.4644,-0.465,-0.4689,-0.4687,-0.471,-0.4719,-0.4727,-0.4732,-0.4754,-0.4765,-0.4649,-0.4649,-0.4649,0,0,-0.4711,-0.4699,-0.4708,-0.4708,-0.4702,-0.4716,-0.4669,-0.4685,-0.4695,-0.4649,-0.4673,-0.4663,-0.4656,-0.4689,-0.4703,-0.4683,-0.4763,-0.4732,-0.4739,-0.474,-0.476,-0.4771,-0.4781,-0.4652,-0.4652,-0.4651,0,0,-0.4782,-0.4773,-0.4799,-0.4794,-0.4786,-0.4769,-0.4775,-0.4759,-0.4752,-0.4774,-0.4741,-0.4752,-0.4766,-0.4763,-0.4763,-0.4833,-0.4808,-0.4836,-0.4884,-0.4905,-0.4915,-0.4923,-0.495,-0.496,-0.4841,-0.4842,-0.4842,0,-0.4827,-0.4846,-0.4816,-0.4834,-0.4836,-0.4794,-0.4821,-0.4817,-0.4812,-0.4814,-0.4792,-0.481,-0.4802,-0.4835,-0.4852,-0.4852,-0.486,-0.4839,-0.4915,-0.4923,-0.493,-0.4956,-0.4966,-0.4845,-0.4845,-0.4844,-0.4844,0,-0.4902,-0.4915,-0.4937,-0.4933,-0.4937,-0.4959,-0.4933,-0.4941,-0.4921,-0.4906,-0.4931,-0.4919,-0.4924,-0.4929,-0.491,-0.4959,-0.4948,-0.4921,-0.4883,-0.4946,-0.4969,-0.4979,-0.485,-0.4849,-0.4848,-0.4847,0,0,-0.5011,-0.499,-0.4999,-0.4997,-0.4984,-0.4994,-0.5015,-0.5019,-0.5027,-0.5024,-0.5041,-0.5054,-0.503,-0.503,-0.501,-0.5029,-0.5088,-0.5,-0.4999,-0.5019,-0.5144,-0.5166,-0.5178,-0.507,-0.5071,-0.5073,-0.5145,0,-0.508,-0.5115,-0.5089,-0.5128,-0.5141,-0.5102,-0.512,-0.5115,-0.5102,-0.5112,-0.5097,-0.5108,-0.5074,-0.5074,-0.5091,-0.5077,-0.5113,-0.5071,-0.5088,-0.5089,-0.5093,-0.519,-0.5213,-0.5282,-0.5154,-0.5156,-0.5157,0,-0.5166,-0.5168,-0.5209,-0.5195,-0.5199,-0.5216,-0.5218,-0.5227,-0.522,-0.5209,-0.521,-0.5185,-0.5205,-0.5166,-0.5195,-0.5167,-0.5172,-0.5166,-0.5168,-0.5171,-0.5128,-0.5197,-0.5303,-0.5314,-0.5171,-0.5169,-0.5168,0,-0.5245,-0.5257,-0.5283,-0.5282,-0.5266,-0.5279,-0.5273,-0.5264,-0.5268,-0.527,-0.5273,-0.5276,-0.5279,-0.5283,-0.526,-0.5233,-0.5292,-0.525,-0.5285,-0.5286,-0.5301,-0.5301,-0.5412,-0.53,-0.53,-0.53,-0.53,0,-0.5326,-0.5354,-0.5318,-0.5335,-0.5364,-0.5334,-0.5364,-0.5354,-0.5347,-0.5361,-0.5326,-0.5341,-0.5308,-0.5319,-0.5301,-0.5329,-0.5329,-0.5322,-0.5318,-0.5327,-0.5328,-0.5332,-0.5327,-0.5303,-0.5302,-0.5302,-0.5301,0,-0.542,-0.5397,-0.5424,-0.5406,-0.5402,-0.5425,-0.541,-0.5425,-0.541,-0.5428,-0.5431,-0.5407,-0.5419,-0.5395,-0.5403,-0.5391,-0.5431,-0.5417,-0.5433,-0.543,-0.5467,-0.5465,-0.5586,-0.5601,-0.5478,-0.5479,-0.548,0,-0.5475,-0.5495,-0.548,-0.5487,-0.5483,-0.5494,-0.5499,-0.5469,-0.5475,-0.5469,-0.5486,-0.5494,-0.55,-0.552,-0.5504,-0.551,-0.5498,-0.554,-0.5499,-0.5508,-0.5501,-0.5502,-0.5504,-0.5549,-0.5551,-0.5552,-0.5553,0,-0.5576,-0.5563,-0.5571,-0.5575,-0.5581,-0.5582,-0.5581,-0.5589,-0.5558,-0.5566,-0.5578,-0.5582,-0.559,-0.56,-0.5603,-0.5597,-0.5571,-0.5565,-0.5574,-0.5585,-0.5595,-0.5593,-0.5459,-0.5563,-0.5562,-0.5562,-0.5561,-0.5561,-0.5653,-0.567,-0.5662,-0.5672,-0.5668,-0.5668,-0.5682,-0.5668,-0.5677,-0.5681,-0.5663,-0.5679,-0.5673,-0.5673,-0.567,-0.5683,-0.5664,-0.5676,-0.568,-0.5684,-0.5691,-0.5591,-0.5683,-0.5682,-0.5682,-0.5682,-0.5682,0,-0.5754,-0.5747,-0.5756,-0.5756,-0.5764,-0.5737,-0.5735,-0.5744,-0.5758,-0.5754,-0.576,-0.5774,-0.5783,-0.5767,-0.5774,-0.5787,-0.5776,-0.579,-0.579,-0.579,-0.5706,-0.5699,-0.58,-0.58,-0.58,-0.58,-0.58,-0.58,-0.5808,-0.5835,-0.5822,-0.5848,-0.584,-0.5855,-0.5857,-0.5857,-0.5854,-0.5871,-0.5878,-0.5868,-0.5859,-0.5865,-0.5873,-0.5868,-0.5873,-0.5893,-0.5884,-0.5807,-0.5795,-0.5785,-0.5778,-0.5894,-0.5894,-0.5967,-0.5968,-0.5968]}]]